Погода в Тысячном

Россия / Краснодарский край     45°10′57″N   40°46′12″E
темп.,
°C
ветер,
м/с
пор.,
м/с
влажн.,
%
обл.,
%
осадки,
мм/ч
давл.,
гПа
погр.,
м
8 августа, пн
пн800:00+20в33670 0.0 101133
03:00+19всв48660 0.0 1011130
06:00+19всв49670 0.0 1013181
09:00+29всв710310 0.0 10131435
12:00+33в89180 0.0 10122983
15:00+34в78140 0.0 10113422
18:00+32вюв68230 0.0 10111698
21:00+24вюв412430 0.0 1013223
9 августа, вт
вт900:00+21вюв410490 0.0 1013158
03:00+20в35520 0.0 101368
06:00+20всв49490 0.0 1014161
09:00+30в710240 0.0 10131559
12:00+34в811180 0.0 10122839
15:00+35в910160 0.0 10113125
18:00+33в710200 0.0 10102876
21:00+27в514280 0.0 1010317
10 августа, ср
ср1000:00+25в614360 0.0 1010458
03:00+23в513390 0.0 1010313
06:00+23в717400 0.0 1010580
09:00+29в1116260 0.0 10091689
12:00+34в1113200 0.0 10082235
15:00+36вюв1012190 0.0 10062677
18:00+34в810221 0.0 10062652
21:00+29всв714295 0.0 1006469
11 августа, чт
чт1100:00+26в7153746 0.0 1007673
03:00+23в6135085 0.1 1007498
06:00+22всв5106336 0.1 1008391
09:00+29вюв794219 0.1 10081151
12:00+34вюв783155 0.0 10071919
15:00+36вюв662660 0.0 10062272
18:00+35вюв362621 0.1 10062172
21:00+26вюв225324 0.6 100813
12 августа, пт
пт1200:00+22в497773 2.8 1010141
03:00+21всв497881 3.4 1010143
06:00+21в49770 0.0 1011197
09:00+29вюв68432 0.0 1011928
12:00+35в78300 0.0 10101888
15:00+38в89200 0.1 10082613
18:00+37в610193 0.0 10082651
21:00+32в916225 0.0 1009886